Weather History for Sioux Falls, SD

Change the Weather History Date:

Thursday, June 5, 2014

  Actual Average Record
Temperature  
Mean Temperature 68 °F 64 °F  
Max Temperature 75 °F 76 °F 96 °F (1909)
Min Temperature 61 °F 53 °F 37 °F (1894)
Degree Days  
Heating Degree Days 0 3  
Month to date heating degree days 7 18  
Since 1 June heating degree days 7 18  
Since 1 July heating degree days 8295 7673  
Cooling Degree Days 3 3  
Month to date cooling degree days 13 11  
Year to date cooling degree days 66 47  
Since 1 June cooling degree days 13 11  
Growing Degree Days 18 (Base 50)    
Moisture  
Dew Point 62 °F    
Average Humidity 77    
Maximum Humidity 93    
Minimum Humidity 60    
Precipitation  
Precipitation 1.52 in 0.12 in 2.02 in (1994)
Month to date precipitation 4.45 0.63  
Year to date precipitation 9.43 9.96  
Snow  
Snow 0.00 in 0.00 in 0.00 in ()
Month to date snowfall 0.0 0.0  
Since 1 June snowfall 0.0 0.0  
Since 1 July snowfall 45.3 44.5  
Snow Depth 0.00 in    
Sea Level Pressure  
Sea Level Pressure 29.86 in    
Wind  
Wind Speed 8 mph (South)    
Max Wind Speed 18 mph    
Max Gust Speed 24 mph    
Visibility 7 miles    
Events Fog , Rain , Hail , Thunderstorm , Tornado    
T = Trace of Precipitation, MM = Missing Value Source: NWS Daily Summary

Daily Weather History Graph

Daily Weather History Graph

Search for Another Location

Airport:

Trip Planner

Search our weather history database for the weather conditions in past years. The results will help you decide how hot, cold, wet, or windy it might be!

Date:

Astronomy

Jun. 05, 2014 Rise Set
Actual Time 5:46 AM CDT 9:04 PM CDT
Civil Twilight 5:11 AM CDT 9:39 PM CDT
Nautical Twilight 4:25 AM CDT 10:25 PM CDT
Astronomical Twilight 3:29 AM CDT 11:22 PM CDT
Moon 1:14 PM CDT (6/5) 1:23 AM CDT (6/5)
Length of Visible Light 16h 28m
Length of Day
15h 17m
Waxing Crescent, 49% of the Moon is Illuminated
Jun 5
Waxing Crescent
Jun 5
First Quarter
Jun 12
Full
Jun 19
Last Quarter
Jun 27
New

Hourly Weather History & Observations

Time (CDT) Temp. Dew Point Humidity Pressure Visibility Wind Dir Wind Speed Gust Speed Precip Events Conditions
12:56 AM 68.0 °F 61.0 °F 78% 29.90 in 10.0 mi South 9.2 mph - N/A   Mostly Cloudy
1:56 AM 68.0 °F 62.1 °F 81% 29.91 in 10.0 mi South 10.4 mph - N/A   Mostly Cloudy
2:56 AM 66.9 °F 62.1 °F 84% 29.88 in 10.0 mi South 12.7 mph - N/A   Clear
3:56 AM 66.0 °F 62.1 °F 87% 29.84 in 10.0 mi South 12.7 mph - N/A   Clear
4:56 AM 64.9 °F 62.1 °F 90% 29.83 in 10.0 mi SE 6.9 mph - N/A   Mostly Cloudy
5:21 AM 64.0 °F 62.1 °F 93% 29.85 in 9.0 mi South 6.9 mph - N/A   Mostly Cloudy
5:56 AM 64.0 °F 62.1 °F 93% 29.81 in 6.0 mi SSE 9.2 mph - N/A   Mostly Cloudy
6:41 AM 64.9 °F 62.1 °F 90% 29.87 in 6.0 mi SSE 9.2 mph - N/A   Overcast
6:56 AM 64.9 °F 62.1 °F 90% 29.86 in 4.0 mi South 9.2 mph - N/A   Overcast
7:35 AM 64.9 °F 62.1 °F 90% 29.87 in 5.0 mi SSE 13.8 mph - N/A   Overcast
7:50 AM 64.4 °F 62.6 °F 94% 29.88 in 6.0 mi South 12.7 mph - N/A   Overcast
7:56 AM 64.9 °F 62.1 °F 90% 29.86 in 6.0 mi South 12.7 mph - N/A   Overcast
8:56 AM 66.0 °F 63.0 °F 90% 29.85 in 7.0 mi South 15.0 mph - N/A   Overcast
9:56 AM 66.0 °F 63.0 °F 90% 29.86 in 4.0 mi SW 9.2 mph - N/A   Overcast
10:10 AM 66.0 °F 63.0 °F 90% 29.87 in 4.0 mi SW 8.1 mph - 0.00 in Rain , Thunderstorm Light Thunderstorms and Rain
10:16 AM 64.9 °F 62.1 °F 90% 29.87 in 2.0 mi WSW 12.7 mph 20.7 mph 0.01 in Rain , Thunderstorm Thunderstorms and Rain
10:22 AM 62.1 °F 55.9 °F 80% 29.86 in 1.5 mi WSW 9.2 mph 20.7 mph 0.14 in Rain , Thunderstorm Heavy Thunderstorms and Rain
10:33 AM 61.0 °F 57.9 °F 90% 29.87 in 2.5 mi WSW 8.1 mph 17.3 mph 0.28 in Rain , Thunderstorm Light Thunderstorms and Rain
10:56 AM 61.0 °F 57.9 °F 90% 29.86 in 5.0 mi West 4.6 mph - 0.54 in Rain , Thunderstorm Light Thunderstorms and Rain
11:56 AM 66.0 °F 63.0 °F 90% 29.86 in 10.0 mi SW 4.6 mph - 0.14 in Thunderstorm Thunderstorm
12:28 PM 69.1 °F 64.0 °F 84% 29.86 in 10.0 mi SSE 8.1 mph - N/A   Overcast
12:56 PM 71.1 °F 64.0 °F 78% 29.84 in 10.0 mi South 9.2 mph - N/A   Mostly Cloudy
1:56 PM 75.0 °F 62.1 °F 64% 29.83 in 10.0 mi SSE 9.2 mph - N/A   Scattered Clouds
2:01 PM 75.0 °F 63.0 °F 66% 29.85 in 10.0 mi South 12.7 mph 18.4 mph N/A Thunderstorm Thunderstorm
2:13 PM 75.0 °F 62.1 °F 64% 29.85 in 10.0 mi SSE 9.2 mph - N/A Thunderstorm , Tornado Funnel Cloud
2:23 PM 73.9 °F 62.1 °F 66% 29.85 in 10.0 mi South 8.1 mph - N/A Thunderstorm Thunderstorm
2:56 PM 70.0 °F 63.0 °F 78% 29.85 in 1.2 mi West 10.4 mph - 0.12 in Rain , Thunderstorm Heavy Thunderstorms and Rain
2:58 PM 68.0 °F 63.0 °F 84% 29.87 in 1.0 mi West 18.4 mph 23.0 mph 0.08 in Rain , Hail , Thunderstorm Heavy Thunderstorms and Rain
3:03 PM 64.0 °F 60.1 °F 87% 29.87 in 0.5 mi West 6.9 mph 23.0 mph 0.20 in Fog , Rain , Hail , Thunderstorm Heavy Thunderstorms and Rain
3:09 PM 63.0 °F 59.0 °F 87% 29.86 in 2.5 mi South 6.9 mph - 0.45 in Rain , Thunderstorm Heavy Thunderstorms and Rain
3:11 PM 62.1 °F 57.9 °F 86% 29.85 in 2.5 mi SE 16.1 mph 24.2 mph 0.51 in Rain , Hail , Thunderstorm Heavy Thunderstorms and Rain
3:18 PM 63.0 °F 59.0 °F 87% 29.84 in 6.0 mi ESE 9.2 mph 24.2 mph 0.72 in Rain , Thunderstorm Light Thunderstorms and Rain
3:47 PM 64.9 °F 60.1 °F 84% 29.86 in 10.0 mi SSE 13.8 mph 24.2 mph 0.72 in   Scattered Clouds
3:56 PM 68.0 °F 60.1 °F 76% 29.83 in 10.0 mi SE 10.4 mph - 0.72 in   Scattered Clouds
4:56 PM 73.4 °F 60.8 °F 65% 29.83 in 10.0 mi SSE 10.4 mph - N/A   Partly Cloudy
5:56 PM 75.0 °F 61.0 °F 62% 29.81 in 10.0 mi SSE 10.4 mph - N/A   Scattered Clouds
6:56 PM 73.9 °F 61.0 °F 64% 29.82 in 10.0 mi SE 6.9 mph - N/A   Mostly Cloudy
7:56 PM 71.1 °F 61.0 °F 70% 29.83 in 10.0 mi SSE 8.1 mph - N/A   Partly Cloudy
8:56 PM 69.1 °F 62.1 °F 78% 29.84 in 10.0 mi SSE 3.5 mph - N/A   Partly Cloudy
9:56 PM 68.0 °F 62.1 °F 81% 29.87 in 10.0 mi South 3.5 mph - N/A   Partly Cloudy
10:56 PM 64.9 °F 62.1 °F 90% 29.88 in 10.0 mi South 3.5 mph - N/A   Clear
11:56 PM 66.9 °F 62.1 °F 84% 29.89 in 10.0 mi SSW 5.8 mph - N/A   Clear